Regional Weather Roundup
Issued by NWS Binghamton, NY

Home | Current Version | Previous Version | Text Only | Print | Product List | Glossary On
Versions: 1 2 3 4 5 6 7 8 9 10 11 12 13 14 15 16 17 18 19 20 21 22 23 24 25 26 27 28 29 30 31 32 33 34 35 36 37 38 39 40 41 42 43 44 45 46 47 48 49 50
000
ASUS41 KBGM 051910
RWRBGM
RWRBGM
BINGHAMTON REGIONAL WEATHER ROUNDUP
NATIONAL WEATHER SERVICE BINGHAMTON NY
200 PM EST THU MAR 05 2015

Note: "fair" indicates few or no clouds below 12,000 feet with no
significant weather and/or obstructions to visibility.

* = Station(s) that does not report precipitation, such as rain,
snow, etc, also no thunder or fog.

!NYZ009-015>018-022>025-036-037-044>046-055>057-062-052000
...CENTRAL NEW YORK...

CITY           SKY/WX    TMP DP  RH WIND       PRES   REMARKS
BINGHAMTON     CLOUDY    12   3  67 NW10      30.12R WCI  -1
CORTLAND       PTSUNNY   14   9  79 NW3       30.19S HAZE
DANSVILLE      CLOUDY    13   2  61 N12       30.27S WCI  -1
ELMIRA         CLOUDY    16   1  51 N9        30.21S WCI   4
ITHACA         FLURRIES  12   5  73 NW14      30.20S WCI  -3
MONTICELLO     CLOUDY    16   1  53 NW13G18   30.10R WCI   2
NORWICH        CLOUDY    14   0  52 NW5       30.17S WCI   6
PENN YAN       CLOUDY    14   0  53 NW9       30.23F WCI   2
ROME           CLOUDY    15   4  61 W8        30.23F WCI   4
SIDNEY         PTSUNNY   18   3  53 NW6       30.17R WCI   9
SYRACUSE       CLOUDY    12   4  70 NW10      30.25F WCI  -1
$$

!PAZ038>040-043-044-047-048-072-052000
...NORTHEAST PENNSYLVANIA...

CITY           SKY/WX    TMP DP  RH WIND       PRES   REMARKS
HAZLETON       LGT SNOW  14   9  79 NW8       30.12R WCI   3
SCRANTON       CLOUDY    18   2  49 NW12      30.17R WCI   5
TOWANDA*       MOSUNNY   18   0  45 N10       30.21F WCI   6
$$
&&
KEY
WCI = WIND CHILL INDEX
VSB = VISIBILITY
HX  = HEAT INDEX
$$



USA.gov is the U.S. government's official web portal to all federal, state and local government web resources and services.